Location: Champs
(48.8539°N, 2.6040°E)
Time: 19:02:26
(UTC+00:00)

ATLAS CENTAUR R/B - Pass Details

Date: 30 May 2022
Orbit: 443 x 688 km, 64.6° (Epoch: 07 June)

Event Time Altitude Azimuth Distance (km) Brightness Sun altitude
Rises 20:50:05 0° 322° (NW) 3,066 7.6 -9.0°
Reaches altitude 10° 20:52:35 10° 330° (NNW) 2,141 5.9 -9.3°
Maximum altitude 20:57:14 41° 41° (NE) 973 2.7 -9.8°
Drops below altitude 10° 21:01:42 10° 112° (ESE) 2,055 3.7 -10.2°
Enters shadow 21:01:42 10° 112° (ESE) 2,056 3.7 -10.2°
